TimeEDT,TemperatureF,Dew PointF,Humidity,Sea Level PressureIn,VisibilityMPH,Wind Direction,Wind SpeedMPH,Gust SpeedMPH,PrecipitationIn,Events,Conditions,WindDirDegrees,DateUTC
12:53 AM,59.0,39.9,49,30.18,9.0,SE,6.9,-,N/A,,Clear,140,2013-04-28 04:53:00
1:53 AM,59.0,39.9,49,30.17,10.0,SE,6.9,-,N/A,,Clear,140,2013-04-28 05:53:00
2:53 AM,57.9,39.9,51,30.13,10.0,Calm,Calm,-,N/A,,Clear,0,2013-04-28 06:53:00
3:53 AM,57.9,39.9,51,30.12,10.0,Variable,5.8,-,N/A,,Clear,0,2013-04-28 07:53:00
4:53 AM,57.9,41.0,53,30.10,10.0,SE,8.1,-,N/A,,Partly Cloudy,140,2013-04-28 08:53:00
5:53 AM,57.9,41.0,53,30.10,10.0,ESE,5.8,-,N/A,,Mostly Cloudy,120,2013-04-28 09:53:00
6:53 AM,57.9,42.1,56,30.09,10.0,ESE,6.9,-,N/A,,Clear,120,2013-04-28 10:53:00
7:53 AM,60.1,43.0,53,30.09,10.0,SE,4.6,-,N/A,,Mostly Cloudy,130,2013-04-28 11:53:00
9:42 AM,57.2,48.2,72,30.12,5.0,Calm,Calm,-,0.01,Rain,Light Rain,0,2013-04-28 13:42:00
9:53 AM,57.0,48.9,74,30.11,5.0,Calm,Calm,-,0.03,Rain,Light Rain,0,2013-04-28 13:53:00
10:53 AM,55.9,51.1,84,30.10,4.0,SSE,8.1,-,0.09,Rain,Light Rain,150,2013-04-28 14:53:00
11:53 AM,57.0,52.0,83,30.08,10.0,Variable,5.8,-,0.04,,Overcast,0,2013-04-28 15:53:00
12:53 PM,57.9,52.0,81,30.07,10.0,SE,8.1,-,0.01,Rain,Light Rain,140,2013-04-28 16:53:00
1:53 PM,57.9,51.1,78,30.06,10.0,SSE,9.2,-,0.00,,Overcast,160,2013-04-28 17:53:00
2:53 PM,61.0,51.1,70,30.03,10.0,SSE,11.5,-,N/A,,Mostly Cloudy,160,2013-04-28 18:53:00
3:53 PM,63.0,48.9,60,29.99,10.0,SSE,11.5,-,N/A,,Scattered Clouds,150,2013-04-28 19:53:00
4:53 PM,63.0,48.0,58,29.98,10.0,SSE,13.8,-,N/A,,Mostly Cloudy,150,2013-04-28 20:53:00
5:53 PM,64.0,48.9,58,29.97,10.0,SSE,12.7,21.9,N/A,,Overcast,150,2013-04-28 21:53:00
6:53 PM,62.1,48.0,60,29.97,10.0,SSE,13.8,20.7,N/A,,Scattered Clouds,150,2013-04-28 22:53:00
7:53 PM,60.1,48.0,64,29.98,10.0,South,9.2,-,N/A,,Clear,170,2013-04-28 23:53:00
8:53 PM,59.0,46.9,64,29.99,10.0,SSE,11.5,-,N/A,,Scattered Clouds,160,2013-04-29 00:53:00
9:53 PM,59.0,46.9,64,30.00,10.0,SSE,11.5,19.6,N/A,,Overcast,160,2013-04-29 01:53:00
10:53 PM,57.0,48.0,72,30.01,10.0,SSE,8.1,-,0.00,,Overcast,160,2013-04-29 02:53:00
11:53 PM,57.0,46.9,69,29.99,10.0,SSE,12.7,-,N/A,,Mostly Cloudy,160,2013-04-29 03:53:00